Starlink 34064

operational
NORAD ID: 64114 Int'l Des: 2025-110 Owner: SPXS Country: US Constellation: starlink
LEOCIRCULAR

Über Starlink 34064

Beschreibung wird geladen...

Live-Position

3D-Globus wird geladen...

Nächste Überflüge

Höhenverlauf

Altitude vs Time

uPlot chart will show altitude changes over time

Zweizeiliger Elementsatz

1 64114U 25110U 25260.86381461 .00032692 00000-0 82356-3 0 9996
2 64114 53.1576 112.9612 0000746 68.1777 291.9307 15.39628219 19377
Epoch: 17. Sept. 2025 • Age: 29 hours

Aktueller Status

Höhe 465.4 km
Geschwindigkeit 7.63 km/s
Subsatellitenpunkt -51.92°S, 7.16°E
Startdatum 23. Mai 2025
Alter 0.3 years
Typ internet

Technische Details

Klassifizierung Payload
Masse 575.00 kg
Trockenmasse 530.00 kg
Gesamtmasse 575.00 kg
Länge 0.30 m
Durchmesser 4.10 m
Spannweite 29.00 m
Form Box + pan
Hersteller SPXS
Bus-Typ Starlink V2MO
Phasenstatus In Orbit
Besitzer/Staat SPXS/US

Große Konstellationen

Loading constellations...